Location: St. Louis
(38.6270°N, 90.1994°W)
Time: 09:21:20
(UTC-05:00)

Altair - Pass Details

Date: 04 July 2022
Orbit: 1502 x 1682 km, 47.2° (Epoch: 16 August)

Event Time Altitude Azimuth Distance (km) Brightness Sun altitude
Exits shadow 03:29:41 - 161° (SSE) 4,285 9.5 -19.8°
Reaches altitude 10° 03:34:11 10° 137° (SE) 3,645 9.4 -19.3°
Maximum altitude 03:36:35 11° 122° (ESE) 3,548 9.5 -19.0°
Drops below altitude 10° 03:38:58 10° 106° (ESE) 3,649 9.7 -18.7°
Sets 03:45:07 0° 75° (ENE) 4,649 10.9 -18.0°
